Temp
-7 -7 -7 -7 -7 -7 -7 -7 -8 -7 -7 -7 -7 -8 -8 -8 -8 -9 -8 -8 -8 -8 -8 -8 -8 -8 -8 -9 -9 -9 -9 -9 -9 -9 -9 -9 -10 -9 -10 -10 -10 -10 -10 -10 -11 -10 -10 -10 -10
-8 -8 -8 -8 -7 -7 -7 -8 -8 -7 -8 -6 -7 -8 -8 -8 -9 -9 -8 -8 -8 -8 -8 -8 -8 -8 -8 -8 -8 -9 -9 -9 -9 -10 -9 -9 -9 -10 -10 -10 -10 -11 -10 -10 -11 -11 -11 -11 -11
-8 -8 -8 -8 -7 -7 -8 -10 -11 -8 -7 -7 -8 -8 -8 -8 -8 -9 -8 -8 -8 -8 -8 -8 -9 -9 -9 -9 -9 -9 -10 -10 -10 -10 -10 -10 -10 -11 -11 -11 -11 -11 -11 -11 -11 -11 -12 -12 -12
-9 -9 -9 -8 -8 -8 -8 -8 -12 -8 -7 -8 -8 -8 -8 -8 -9 -9 -9 -9 -9 -9 -9 -9 -9 -9 -9 -9 -9 -10 -10 -10 -10 -10 -10 -10 -10 -11 -11 -11 -11 -11 -11 -11 -12 -13 -12 -12 -12
-10 -10 -9 -9 -9 -9 -9 -9 -9 -9 -9 -8 -8 -8 -8 -8 -9 -9 -9 -9 -9 -9 -9 -9 -9 -9 -9 -9 -10 -10 -10 -10 -10 -10 -10 -10 -11 -11 -11 -11 -11 -11 -12 -12 -12 -12 -13 -13 -12
-10 -10 -9 -9 -9 -9 -9 -9 -9 -9 -9 -9 -9 -8 -9 -9 -9 -9 -9 -9 -9 -9 -9 -9 -10 -10 -10 -10 -10 -10 -10 -10 -10 -11 -10 -11 -10 -10 -10 -11 -11 -12 -12 -13 -13 -13 -13 -13 -13
-10 -10 -9 -9 -10 -10 -11 -9 -9 -10 -10 -9 -9 -8 -9 -9 -9 -9 -10 -9 -10 -9 -9 -10 -10 -11 -11 -11 -11 -11 -11 -10 -10 -11 -11 -11 -11 -10 -9 -10 -10 -11 -12 -13 -13 -13 -13 -13 -13
-10 -10 -10 -10 -10 -9 -12 -9 -10 -10 -10 -10 -9 -9 -9 -9 -8 -10 -10 -10 -10 -10 -10 -10 -11 -11 -12 -11 -12 -12 -12 -11 -11 -11 -11 -11 -10 -11 -11 -11 -10 -10 -11 -12 -13 -13 -13 -13 -13
-11 -11 -10 -10 -10 -10 -10 -10 -11 -11 -10 -10 -9 -9 -9 -8 -10 -10 -10 -11 -11 -11 -10 -11 -12 -12 -13 -12 -12 -12 -12 -11 -11 -11 -11 -11 -11 -11 -11 -12 -11 -10 -11 -11 -12 -12 -12 -12 -12
-11 -11 -11 -11 -11 -10 -10 -10 -11 -10 -10 -10 -10 -9 -9 -9 -10 -10 -10 -11 -11 -11 -11 -12 -12 -13 -13 -13 -13 -12 -12 -12 -12 -12 -12 -11 -11 -11 -11 -12 -11 -11 -12 -12 -12 -12 -12 -12 -12
-12 -11 -11 -11 -11 -11 -10 -10 -11 -11 -10 -10 -10 -10 -9 -9 -9 -10 -11 -11 -12 -11 -12 -12 -13 -13 -13 -13 -13 -13 -12 -12 -12 -12 -12 -12 -12 -11 -12 -11 -12 -12 -12 -12 -12 -11 -12 -12 -12
-12 -12 -12 -12 -12 -11 -11 -11 -11 -11 -10 -10 -10 -10 -10 -10 -10 -10 -11 -12 -12 -12 -12 -12 -13 -14 -14 -14 -14 -13 -13 -13 -13 -12 -12 -12 -12 -11 -11 -11 -11 -11 -12 -11 -11 -11 -11 -11 -12
-13 -13 -13 -12 -12 -12 -12 -11 -11 -11 -11 -11 -10 -11 -10 -10 -10 -11 -11 -12 -12 -12 -13 -13 -14 -14 -14 -14 -14 -13 -13 -13 -13 -13 -12 -12 -12 -11 -11 -11 -11 -12 -12 -11 -11 -11 -11 -12 -13
-14 -14 -13 -13 -13 -13 -13 -12 -12 -11 -12 -12 -11 -11 -11 -11 -11 -11 -11 -12 -13 -13 -14 -14 -14 -14 -14 -14 -14 -13 -13 -13 -13 -13 -13 -12 -12 -12 -11 -11 -11 -12 -12 -11 -11 -11 -11 -12 -12
-15 -15 -15 -14 -14 -14 -14 -13 -12 -12 -12 -12 -11 -11 -11 -11 -11 -11 -11 -12 -13 -14 -14 -14 -15 -15 -15 -14 -14 -13 -13 -13 -13 -13 -13 -13 -12 -12 -12 -11 -11 -12 -12 -11 -11 -11 -11 -12 -12
-16 -16 -16 -16 -17 -15 -16 -14 -13 -13 -13 -12 -12 -11 -11 -11 -11 -11 -12 -12 -14 -14 -14 -15 -15 -15 -15 -14 -14 -14 -13 -13 -13 -13 -13 -13 -12 -12 -12 -11 -12 -12 -12 -11 -11 -11 -12 -12 -11
-16 -16 -18 -18 -18 -17 -17 -15 -14 -13 -13 -12 -12 -12 -12 -12 -12 -12 -12 -13 -14 -15 -15 -15 -15 -15 -15 -15 -14 -14 -14 -13 -13 -13 -13 -13 -12 -12 -11 -12 -12 -12 -12 -12 -12 -12 -12 -11 -11
-20 -20 -19 -19 -18 -18 -17 -16 -14 -14 -13 -13 -12 -12 -12 -12 -12 -12 -13 -13 -14 -15 -15 -15 -16 -15 -15 -15 -14 -14 -13 -13 -13 -13 -13 -12 -12 -12 -12 -12 -13 -13 -12 -12 -12 -12 -12 -12 -11
-19 -20 -19 -19 -19 -18 -18 -17 -15 -14 -14 -13 -13 -12 -12 -12 -12 -13 -14 -13 -14 -15 -15 -15 -16 -16 -15 -15 -14 -14 -14 -14 -13 -13 -12 -12 -12 -12 -12 -13 -12 -12 -12 -12 -12 -12 -13 -12 -11
-20 -20 -19 -19 -19 -19 -18 -17 -16 -15 -14 -13 -13 -13 -12 -12 -12 -13 -14 -14 -15 -15 -15 -16 -16 -16 -15 -14 -14 -14 -14 -13 -13 -13 -12 -12 -12 -12 -12 -12 -12 -12 -12 -12 -12 -12 -12 -12 -12
-20 -20 -20 -20 -19 -19 -17 -17 -16 -15 -14 -14 -13 -13 -13 -12 -13 -13 -14 -14 -15 -15 -15 -16 -16 -16 -15 -14 -14 -14 -14 -13 -13 -12 -12 -13 -13 -13 -13 -12 -13 -12 -13 -12 -12 -12 -12 -12 -12
-20 -20 -20 -20 -19 -19 -19 -18 -17 -16 -15 -14 -13 -13 -13 -12 -13 -13 -14 -14 -15 -15 -16 -16 -16 -16 -15 -15 -14 -14 -14 -13 -13 -13 -13 -13 -13 -13 -13 -13 -13 -12 -12 -12 -13 -12 -13 -13 -12
-20 -20 -20 -20 -19 -19 -18 -18 -16 -16 -15 -14 -14 -13 -13 -12 -13 -14 -15 -15 -15 -15 -15 -16 -16 -16 -15 -15 -15 -14 -14 -13 -13 -13 -13 -13 -14 -13 -12 -12 -12 -12 -12 -12 -12 -12 -12 -13 -13
-21 -20 -20 -20 -20 -18 -18 -17 -17 -17 -16 -14 -13 -13 -12 -13 -14 -14 -15 -15 -15 -15 -15 -16 -16 -15 -15 -14 -15 -14 -14 -13 -13 -13 -13 -14 -14 -13 -13 -12 -12 -12 -12 -12 -13 -13 -13 -13 -13
-20 -20 -21 -20 -19 -18 -18 -17 -17 -17 -15 -14 -13 -13 -13 -13 -13 -14 -15 -15 -14 -15 -15 -16 -16 -15 -15 -14 -15 -14 -14 -14 -13 -13 -13 -14 -14 -14 -13 -13 -12 -12 -13 -12 -13 -13 -13 -13 -13
-21 -20 -20 -19 -19 -18 -17 -18 -17 -16 -15 -15 -13 -12 -13 -13 -13 -14 -15 -15 -15 -14 -15 -15 -16 -15 -15 -15 -15 -14 -14 -14 -14 -13 -13 -14 -14 -13 -14 -13 -13 -13 -13 -13 -13 -13 -13 -13 -13
-20 -20 -21 -20 -19 -19 -18 -18 -18 -16 -16 -15 -14 -13 -14 -14 -14 -14 -14 -15 -15 -15 -15 -15 -15 -16 -15 -15 -15 -14 -14 -14 -14 -14 -14 -14 -14 -14 -13 -13 -13 -13 -13 -13 -13 -13 -13 -13 -13
-20 -20 -19 -20 -19 -19 -17 -17 -16 -16 -16 -15 -14 -14 -15 -15 -14 -15 -15 -15 -15 -15 -15 -16 -15 -16 -15 -15 -15 -14 -14 -14 -14 -14 -14 -14 -14 -14 -14 -13 -13 -13 -13 -13 -13 -13 -13 -13 -13
-20 -20 -20 -20 -19 -18 -18 -17 -17 -17 -16 -15 -14 -14 -15 -15 -15 -15 -15 -15 -15 -15 -16 -16 -16 -16 -14 -15 -15 -14 -14 -14 -14 -14 -14 -14 -14 -14 -14 -13 -13 -13 -13 -13 -13 -14 -14 -13 -13
-22 -20 -20 -19 -19 -19 -18 -18 -18 -17 -16 -16 -16 -15 -15 -15 -15 -15 -15 -16 -15 -16 -16 -16 -16 -16 -14 -15 -15 -15 -14 -14 -14 -14 -14 -14 -14 -14 -14 -13 -13 -13 -13 -14 -14 -14 -14 -14 -14
Height
5825 5826 5826 5826 5829 5827 5827 5827 5827 5825 5826 5825 5827 5826 5826 5825 5824 5825 5821 5821 5819 5819 5819 5819 5819 5818 5817 5816 5815 5814 5813 5813 5812 5810 5809 5809 5809 5808 5807 5806 5807 5808 5809 5809 5810 5812 5814 5816 5819
5818 5818 5819 5819 5821 5820 5821 5819 5819 5819 5818 5818 5820 5820 5819 5818 5817 5817 5816 5815 5814 5814 5814 5814 5814 5814 5813 5812 5811 5810 5809 5808 5808 5807 5806 5805 5804 5804 5802 5800 5802 5802 5803 5804 5805 5807 5809 5811 5814
5810 5810 5811 5811 5811 5814 5816 5815 5811 5811 5811 5812 5813 5814 5812 5812 5811 5810 5810 5809 5809 5808 5809 5809 5810 5809 5808 5807 5806 5805 5804 5804 5803 5802 5802 5800 5799 5798 5797 5797 5797 5797 5798 5799 5800 5801 5805 5808 5810
5800 5801 5801 5800 5804 5806 5806 5807 5806 5802 5805 5805 5806 5807 5806 5803 5804 5804 5805 5804 5803 5803 5803 5804 5804 5803 5802 5801 5800 5801 5800 5799 5798 5797 5796 5794 5794 5793 5792 5792 5793 5793 5793 5795 5797 5798 5801 5804 5807
5794 5793 5793 5794 5796 5798 5797 5795 5794 5797 5797 5797 5799 5800 5798 5796 5797 5797 5798 5798 5798 5797 5798 5798 5797 5797 5796 5795 5795 5794 5795 5795 5793 5792 5790 5788 5789 5787 5787 5787 5787 5788 5790 5790 5793 5795 5797 5799 5802
5786 5787 5786 5788 5791 5789 5786 5784 5787 5789 5790 5791 5791 5791 5789 5789 5789 5789 5791 5792 5792 5790 5792 5791 5791 5790 5790 5789 5788 5788 5788 5789 5788 5786 5784 5783 5781 5778 5778 5779 5782 5781 5782 5784 5787 5789 5793 5795 5798
5779 5777 5780 5779 5781 5780 5778 5773 5782 5780 5781 5783 5783 5781 5784 5782 5782 5783 5785 5785 5784 5783 5785 5785 5785 5784 5783 5782 5781 5781 5781 5781 5783 5779 5779 5779 5776 5776 5773 5768 5771 5772 5775 5778 5782 5785 5788 5792 5795
5769 5769 5769 5771 5772 5773 5770 5765 5771 5771 5772 5772 5773 5776 5778 5772 5778 5778 5778 5778 5777 5777 5779 5778 5778 5777 5777 5776 5775 5774 5775 5774 5775 5774 5774 5773 5773 5770 5771 5763 5769 5770 5774 5774 5777 5780 5784 5788 5792
5758 5757 5761 5763 5763 5763 5757 5760 5760 5762 5760 5761 5764 5768 5767 5768 5771 5771 5771 5770 5770 5771 5773 5773 5772 5771 5769 5770 5768 5768 5768 5768 5768 5768 5768 5768 5769 5768 5767 5765 5766 5766 5771 5774 5775 5779 5781 5785 5788
5745 5748 5752 5753 5753 5750 5747 5750 5751 5752 5753 5754 5755 5758 5759 5762 5763 5763 5763 5764 5763 5765 5767 5767 5766 5765 5763 5763 5762 5761 5761 5761 5761 5762 5762 5763 5764 5764 5762 5764 5765 5768 5771 5773 5775 5776 5779 5782 5785
5732 5737 5740 5740 5738 5738 5740 5740 5741 5743 5743 5747 5748 5749 5751 5753 5756 5755 5756 5756 5757 5758 5760 5759 5759 5759 5757 5757 5756 5755 5755 5756 5756 5757 5757 5756 5758 5759 5759 5758 5762 5762 5763 5766 5770 5772 5775 5777 5781
5718 5722 5725 5728 5727 5726 5729 5731 5731 5734 5735 5736 5739 5743 5744 5743 5748 5749 5749 5749 5750 5751 5752 5753 5754 5753 5753 5752 5750 5749 5749 5750 5750 5752 5753 5752 5753 5754 5755 5755 5755 5757 5760 5761 5764 5768 5771 5775 5777
5706 5709 5710 5713 5715 5715 5717 5720 5722 5724 5724 5727 5732 5734 5734 5735 5738 5739 5741 5741 5742 5743 5745 5746 5747 5747 5747 5746 5745 5744 5744 5744 5745 5747 5749 5748 5748 5749 5749 5750 5752 5754 5755 5755 5759 5763 5767 5770 5771
5696 5696 5699 5701 5702 5704 5704 5708 5709 5716 5717 5719 5722 5724 5725 5727 5729 5730 5732 5734 5735 5737 5737 5739 5741 5740 5740 5740 5739 5738 5739 5739 5739 5742 5743 5743 5743 5745 5745 5745 5746 5747 5748 5752 5755 5756 5762 5765 5766
5685 5685 5686 5689 5691 5692 5692 5697 5700 5705 5707 5709 5713 5716 5716 5719 5721 5722 5724 5726 5727 5728 5729 5732 5735 5734 5734 5734 5733 5733 5734 5734 5735 5737 5738 5737 5737 5738 5738 5739 5740 5742 5743 5745 5749 5753 5756 5760 5762
5674 5673 5674 5679 5678 5681 5682 5687 5692 5693 5698 5700 5704 5707 5708 5711 5714 5714 5716 5718 5719 5720 5723 5726 5728 5728 5728 5728 5728 5727 5728 5728 5730 5731 5732 5732 5733 5733 5733 5734 5735 5736 5738 5740 5745 5748 5752 5754 5758
5661 5661 5664 5668 5668 5671 5673 5677 5682 5681 5689 5691 5693 5698 5700 5702 5705 5706 5707 5708 5711 5714 5717 5719 5721 5722 5722 5723 5722 5722 5723 5723 5724 5726 5726 5727 5727 5728 5726 5728 5729 5730 5734 5738 5741 5745 5747 5751 5756
5655 5653 5657 5659 5660 5662 5665 5665 5671 5675 5677 5682 5684 5689 5692 5693 5697 5697 5697 5698 5702 5706 5710 5712 5715 5717 5717 5717 5717 5718 5717 5718 5718 5720 5721 5722 5721 5722 5721 5721 5723 5725 5729 5732 5736 5739 5742 5746 5752
5645 5645 5648 5651 5652 5652 5655 5657 5662 5666 5668 5672 5678 5681 5684 5686 5687 5688 5689 5689 5695 5699 5703 5707 5710 5711 5711 5712 5712 5713 5712 5714 5714 5715 5715 5715 5715 5715 5715 5715 5718 5720 5724 5728 5731 5734 5737 5742 5748
5640 5640 5641 5642 5642 5642 5647 5647 5652 5657 5661 5664 5669 5672 5675 5676 5677 5679 5681 5684 5689 5693 5697 5701 5704 5705 5706 5707 5707 5708 5709 5709 5710 5710 5709 5709 5707 5706 5707 5709 5711 5715 5718 5722 5725 5730 5734 5737 5743
5633 5633 5635 5634 5638 5639 5639 5640 5647 5648 5652 5657 5660 5663 5665 5667 5669 5671 5675 5677 5683 5687 5692 5695 5698 5700 5701 5702 5702 5704 5706 5706 5706 5705 5704 5702 5701 5700 5700 5700 5705 5708 5713 5717 5721 5725 5729 5733 5738
5627 5629 5628 5630 5630 5632 5633 5629 5637 5641 5645 5649 5651 5654 5657 5659 5662 5666 5668 5672 5678 5681 5685 5689 5693 5695 5697 5696 5699 5701 5702 5703 5702 5701 5700 5697 5696 5696 5695 5696 5699 5702 5708 5712 5717 5720 5725 5728 5734
5622 5619 5623 5623 5623 5623 5627 5627 5633 5636 5639 5640 5642 5646 5649 5652 5656 5660 5663 5666 5671 5674 5679 5684 5687 5690 5692 5692 5696 5698 5698 5700 5699 5698 5697 5694 5691 5690 5689 5690 5694 5698 5704 5709 5712 5717 5721 5725 5729
5615 5615 5616 5616 5617 5615 5624 5623 5628 5634 5629 5633 5634 5638 5641 5645 5649 5652 5656 5660 5663 5667 5673 5678 5682 5685 5687 5689 5692 5694 5695 5697 5696 5695 5694 5692 5687 5686 5684 5685 5686 5693 5699 5703 5709 5712 5717 5721 5725
5609 5609 5611 5614 5612 5615 5618 5618 5624 5624 5623 5624 5627 5630 5632 5636 5641 5645 5649 5653 5657 5662 5669 5672 5676 5681 5683 5685 5687 5691 5692 5693 5694 5693 5692 5690 5687 5684 5682 5683 5686 5690 5695 5699 5704 5709 5713 5717 5721
5605 5605 5606 5609 5611 5612 5611 5615 5617 5617 5618 5619 5620 5621 5623 5628 5631 5636 5642 5646 5651 5657 5663 5667 5671 5676 5678 5681 5684 5687 5688 5690 5691 5690 5690 5689 5686 5685 5683 5682 5685 5688 5691 5697 5701 5706 5709 5714 5717
5601 5600 5603 5602 5605 5606 5609 5612 5612 5610 5611 5613 5613 5614 5618 5623 5628 5633 5633 5641 5647 5652 5658 5662 5667 5672 5674 5677 5680 5683 5684 5686 5688 5688 5688 5688 5686 5684 5683 5682 5683 5687 5691 5694 5698 5703 5707 5710 5713
5596 5598 5599 5598 5599 5601 5605 5607 5604 5606 5605 5606 5606 5609 5613 5617 5622 5626 5629 5636 5642 5648 5653 5657 5662 5667 5670 5673 5676 5677 5680 5682 5683 5684 5684 5685 5684 5683 5681 5680 5680 5684 5688 5692 5695 5699 5702 5705 5709
5590 5592 5593 5594 5595 5596 5598 5599 5599 5600 5600 5601 5603 5603 5607 5612 5616 5619 5623 5629 5637 5644 5648 5652 5657 5662 5666 5668 5671 5673 5676 5678 5679 5680 5680 5681 5682 5681 5680 5680 5680 5682 5685 5688 5692 5695 5697 5700 5703
5584 5585 5588 5588 5592 5591 5592 5592 5594 5595 5596 5596 5597 5598 5601 5606 5610 5614 5620 5625 5633 5638 5642 5647 5651 5656 5661 5664 5667 5669 5671 5673 5675 5676 5677 5677 5678 5679 5679 5679 5679 5681 5683 5686 5688 5691 5694 5696 5698
Wind_Speed
31 33 35 36 37 39 38 38 37 36 34 36 30 27 23 21 22 21 22 21 20 19 18 19 19 20 23 23 23 24 25 26 25 24 22 23 25 27 28 27 25 24 20 23 25 26 27 27 26
34 35 37 38 40 40 41 40 35 35 36 40 32 28 24 24 25 20 23 22 20 20 18 18 20 21 21 23 25 25 25 27 27 27 25 24 25 27 25 24 23 23 21 21 24 26 26 26 25
36 37 40 41 43 43 40 30 34 40 41 36 35 31 27 26 26 24 25 22 21 23 21 20 22 25 25 25 26 28 27 27 29 28 28 28 28 24 25 24 20 24 23 20 22 25 25 26 25
39 41 42 44 43 41 43 42 31 47 42 37 37 33 31 30 25 26 22 23 23 24 21 20 21 25 26 27 28 28 29 29 30 31 29 32 31 28 27 26 23 22 24 21 19 22 25 26 26
41 43 43 44 42 41 42 45 47 45 44 42 39 36 37 31 29 27 25 25 25 25 21 22 23 29 29 29 32 30 29 33 31 32 32 31 31 32 30 30 26 25 24 23 23 24 26 28 28
44 43 46 43 42 44 48 50 45 42 44 43 42 41 41 34 31 30 27 25 26 27 23 24 23 28 31 33 36 33 30 33 35 33 31 30 31 35 30 30 30 31 28 24 25 25 28 32 31
41 46 45 46 45 46 47 54 45 40 42 45 46 47 39 39 33 31 26 26 28 30 24 22 23 27 29 33 36 35 32 32 34 33 31 27 28 23 31 34 39 36 33 26 25 24 30 33 32
46 45 44 43 40 40 39 51 42 44 42 44 47 46 39 42 31 29 29 30 32 32 24 23 27 30 30 33 35 34 34 31 33 33 31 24 22 23 23 24 41 29 28 22 23 22 29 34 32
47 50 48 44 43 43 50 44 44 42 44 43 45 44 45 40 32 31 32 33 34 32 25 22 26 30 33 32 33 33 32 33 32 32 28 24 22 22 23 22 26 28 29 25 21 19 27 33 35
50 50 49 46 47 51 52 44 46 45 42 43 45 46 46 41 32 32 33 35 37 34 26 24 28 30 29 30 32 29 30 32 30 27 24 23 23 19 20 21 21 31 26 25 26 23 25 31 35
51 53 47 49 51 53 52 48 42 45 46 43 46 48 47 43 33 31 33 36 38 36 27 27 28 28 27 32 28 27 30 31 27 26 24 22 22 20 23 20 22 22 28 23 33 27 24 26 32
52 51 51 52 51 54 52 49 44 44 44 44 43 42 45 44 35 31 33 36 38 37 32 28 29 28 28 31 29 27 31 31 26 27 25 23 22 22 23 21 24 22 27 26 29 37 24 25 25
53 52 52 52 54 55 53 51 45 44 47 45 44 43 45 43 37 33 31 36 37 37 33 31 32 30 31 33 32 29 33 31 27 28 25 26 23 25 25 23 23 26 24 23 27 34 32 28 26
53 55 54 53 55 54 53 50 47 44 46 45 43 43 43 41 38 35 35 34 38 34 33 34 32 28 31 31 31 30 34 31 30 31 28 26 27 26 22 22 24 23 23 31 28 28 35 31 29
49 51 54 56 53 52 50 51 47 44 42 44 43 42 41 38 36 36 35 35 36 35 36 32 28 27 28 28 30 32 34 32 32 31 29 28 28 27 26 23 22 23 23 27 28 30 36 31 27
48 54 55 49 51 48 48 49 45 44 39 42 42 39 38 34 34 36 35 34 39 37 34 29 27 27 28 30 28 33 35 32 32 31 30 29 27 27 28 28 24 23 24 29 30 31 35 29 24
55 55 49 39 42 44 44 46 44 47 37 38 39 36 35 32 33 35 33 38 40 37 33 29 27 27 29 29 28 33 34 31 27 28 30 29 29 28 27 28 24 25 28 29 33 35 35 31 20
25 30 31 34 41 39 43 45 46 41 37 37 38 35 32 31 30 33 36 41 38 36 32 29 27 26 28 27 28 31 28 22 21 24 26 28 29 28 29 27 25 27 30 24 38 36 39 37 23
33 32 32 40 34 38 38 41 43 38 38 35 32 32 30 29 29 30 39 39 35 35 32 28 27 26 27 26 27 26 21 19 20 22 25 27 30 31 31 28 27 31 31 33 31 39 39 39 32
30 33 36 38 37 40 37 41 39 35 34 32 32 31 27 27 30 30 39 27 32 33 31 26 26 27 26 27 24 22 20 18 19 20 22 25 27 29 31 31 32 35 31 31 29 35 40 43 37
34 34 31 32 29 30 35 45 32 36 33 30 28 29 28 29 29 30 31 26 31 30 27 26 26 29 25 23 21 19 18 15 18 17 21 24 25 24 26 28 24 30 27 26 26 29 37 41 40
35 33 32 32 33 28 25 31 34 34 33 30 31 30 27 28 28 28 28 25 27 27 27 27 29 28 24 20 21 19 15 15 14 16 15 17 21 21 25 28 29 25 26 32 29 30 35 37 36
32 34 31 32 34 36 29 33 23 29 30 26 27 28 28 28 28 27 28 30 25 30 29 29 30 26 23 20 21 20 14 14 13 14 14 14 20 18 20 27 33 32 33 29 31 32 36 39 31
34 30 29 26 22 33 15 25 19 15 23 23 29 27 30 31 31 29 31 33 28 32 31 32 31 26 21 20 22 18 14 12 11 11 11 9 14 13 13 18 28 32 30 32 29 27 33 27 24
27 25 20 16 18 16 13 20 15 21 19 22 24 26 28 29 26 25 30 32 28 33 32 34 30 23 20 23 22 18 15 11 10 7 6 5 7 11 10 15 25 27 33 28 29 34 32 28 27
23 19 23 12 13 17 14 18 16 21 19 20 24 28 26 32 34 31 33 32 32 32 30 31 29 23 21 24 22 20 15 13 12 11 9 4 5 5 6 9 14 15 25 25 26 31 29 28 27
23 20 18 22 20 22 21 14 19 20 17 18 24 26 28 32 28 29 34 32 32 33 30 31 28 23 23 21 21 21 17 15 14 14 11 8 5 6 4 10 14 17 21 23 19 26 28 28 25
24 24 19 18 17 17 8 7 24 19 18 21 24 29 32 31 32 30 32 34 35 36 30 33 27 25 25 19 19 22 21 18 17 16 14 12 10 6 5 3 13 20 22 20 21 22 25 25 26
25 26 26 22 20 17 14 18 21 19 17 22 26 30 33 32 34 33 34 36 38 32 33 34 30 28 23 20 17 19 22 21 20 18 17 15 13 8 7 6 7 14 17 18 18 11 19 23 24
27 25 20 22 20 23 22 22 15 16 19 21 27 33 35 33 34 35 36 34 35 37 38 37 35 31 24 24 19 17 19 22 22 21 19 17 15 12 8 10 11 10 13 16 16 19 13 14 16
Wind_Direction
263 263 263 265 266 269 274 276 275 274 276 273 266 253 252 250 259 258 277 275 287 294 306 316 315 315 313 298 294 289 287 283 278 274 272 277 282 281 271 269 269 264 266 257 245 239 235 233 230
265 266 266 266 266 269 275 275 268 272 269 274 256 249 248 248 257 265 272 279 286 294 306 310 312 311 307 310 297 292 288 287 280 274 273 274 276 277 275 269 262 254 251 250 240 239 231 226 225
262 262 264 264 266 269 270 261 267 271 273 268 254 247 247 253 259 262 273 273 284 293 303 310 312 306 308 301 297 293 287 282 277 271 272 274 270 272 269 267 264 254 248 243 240 233 231 224 217
256 257 257 261 266 267 265 263 251 270 270 260 253 249 247 251 255 259 266 274 283 291 306 307 315 307 305 298 294 293 290 281 277 271 271 273 270 268 271 266 257 252 246 242 232 226 223 218 217
262 259 259 261 261 263 267 267 264 267 264 258 250 246 250 252 257 259 263 274 282 292 304 307 306 301 299 294 290 289 289 281 275 272 271 271 271 268 266 262 253 246 243 234 228 232 223 216 213
261 260 264 265 266 266 264 265 266 266 263 262 252 242 245 249 256 258 267 274 282 291 303 304 297 294 293 291 287 285 284 281 277 271 269 273 272 260 258 255 249 238 227 226 228 229 223 216 211
265 261 263 265 263 263 266 264 265 268 265 258 249 244 244 250 254 260 267 273 277 286 301 298 294 288 283 283 280 281 278 275 276 268 268 275 279 277 243 262 248 244 228 218 225 227 220 220 214
263 261 261 260 262 262 262 269 264 262 262 252 247 247 246 250 259 259 265 268 270 279 295 291 290 287 282 276 279 278 277 272 269 265 271 270 265 266 265 261 220 243 223 220 221 217 215 215 214
262 261 259 262 262 263 263 269 264 261 253 246 247 245 249 257 256 256 260 264 268 276 294 284 285 284 282 282 280 277 277 274 268 265 267 260 261 265 270 275 216 227 221 223 215 212 217 217 219
264 263 261 264 262 258 259 260 260 260 255 245 246 246 250 257 256 259 263 262 265 273 285 281 278 283 284 278 280 278 278 275 268 264 261 258 260 262 264 267 235 231 226 232 216 215 218 221 224
263 264 261 256 255 258 260 257 256 257 253 250 246 247 251 257 255 260 263 262 265 271 278 274 280 281 277 279 282 285 278 273 263 257 257 255 260 266 258 248 257 264 240 261 226 222 207 217 230
263 260 257 257 256 257 255 254 251 253 254 249 251 253 254 257 258 259 262 263 263 270 272 276 277 273 274 276 285 283 279 270 258 252 257 255 260 269 268 256 266 262 257 255 228 221 222 221 225
257 257 255 255 252 254 253 251 249 247 248 247 248 249 248 254 260 263 259 261 263 269 269 270 272 275 270 274 283 284 281 269 255 256 257 257 264 270 272 263 263 254 253 234 222 221 228 219 222
257 257 256 254 251 250 252 249 246 243 247 250 247 245 246 250 258 262 260 261 263 264 263 264 271 274 271 275 285 282 280 266 259 257 259 262 265 268 261 268 261 254 246 217 226 215 218 212 223
259 257 256 255 251 250 252 247 247 245 242 247 248 244 246 251 256 263 262 261 262 259 257 262 267 269 273 278 287 281 277 266 255 256 260 264 268 268 264 269 265 254 237 211 210 209 211 216 223
254 255 256 256 248 251 251 244 247 247 243 244 246 246 248 251 255 261 263 261 255 253 255 255 261 265 272 280 283 278 274 266 253 256 259 264 265 267 264 263 268 247 227 200 207 207 202 213 223
256 255 252 250 255 251 253 249 248 244 240 241 245 244 249 250 251 260 266 258 253 249 249 250 257 262 270 282 278 275 274 266 254 255 259 261 262 261 261 259 260 239 224 218 211 204 209 219 222
262 256 249 255 251 250 246 247 247 250 242 238 240 245 247 251 256 257 258 257 255 245 244 247 255 262 276 279 274 274 274 258 254 253 257 261 263 261 258 255 247 232 218 227 218 215 212 216 217
248 246 257 257 246 255 249 246 248 247 241 240 243 247 249 256 256 251 251 257 253 243 241 247 254 265 274 272 272 275 262 253 254 259 263 268 265 259 254 252 237 217 217 221 225 219 217 222 228
249 260 248 252 248 245 247 243 242 251 249 245 242 242 248 254 258 248 246 249 243 241 243 247 250 261 269 266 273 269 252 253 260 263 269 269 266 256 251 245 229 216 226 232 228 224 221 227 230
250 254 263 262 261 262 264 248 237 248 244 247 248 246 247 254 257 244 239 235 233 238 241 241 246 259 262 263 276 256 249 255 260 271 276 268 265 248 248 232 224 223 223 222 226 229 224 228 229
252 259 257 265 253 259 253 262 241 243 240 245 241 242 249 253 245 233 232 238 231 234 233 236 243 256 257 268 269 249 246 254 260 269 290 278 265 242 240 232 227 231 218 219 221 217 220 226 231
249 259 262 258 266 250 247 265 241 249 253 245 245 245 246 245 226 224 226 238 231 228 227 231 240 251 257 267 259 246 247 252 260 268 281 287 268 254 237 230 225 218 223 217 227 221 226 227 233
263 254 263 268 275 252 251 260 254 247 241 241 238 240 238 227 217 218 223 231 226 216 220 227 238 247 254 262 252 242 243 246 256 259 276 290 311 238 220 222 209 214 209 221 223 221 216 218 211
280 252 260 270 274 273 256 253 229 244 247 244 240 235 240 230 221 227 230 233 216 215 223 224 230 241 248 258 248 241 237 234 237 232 257 325 326 329 240 209 200 209 210 217 226 216 220 222 219
277 274 245 241 235 227 214 263 252 254 252 246 233 234 224 218 217 222 222 210 211 217 222 223 227 231 245 254 244 239 232 231 223 219 240 280 319 293 283 212 200 218 201 203 211 216 221 225 230
273 265 263 261 235 250 250 250 263 253 260 249 232 231 216 215 218 223 199 204 213 216 219 225 221 226 243 253 243 238 229 231 227 220 230 251 282 275 266 209 207 199 213 218 217 221 227 232 240
261 263 267 259 261 262 267 200 230 251 242 239 230 231 221 220 219 204 195 206 213 214 221 221 216 225 237 244 233 234 236 235 231 226 227 242 263 276 226 219 198 204 214 222 215 233 233 240 242
257 254 259 253 252 247 221 237 242 239 243 234 230 229 225 219 213 205 203 206 214 210 218 218 224 228 231 235 230 236 235 238 235 235 229 230 245 263 231 207 192 196 207 213 218 227 231 234 235
237 247 248 253 236 242 246 245 239 234 237 231 232 231 223 217 211 209 208 207 217 213 216 220 224 227 222 229 229 233 230 236 240 239 240 235 238 247 243 227 210 203 200 201 209 219 249 232 240